STARLINK-35218

Last updated on Sun Dec 07 2025 00:02:05 GMT+0000 (Coordinated Universal Time)

1 66340U 25253X 25340.49071610 .00115787 00000+0 19467-2 0 9995 2 66340 43.0009 21.2031 0002082 285.0455 75.0174 15.50631440 5960
UTC large
Height (km)
Speed (km/s)
/
Latitude / Longitude
Inclination (degrees)
Orbital Period (minutes)
Azimuth
Elevation
Range (km)
Doppler Factor

Next 0 passes for location: London (51.5072 / 0.1276)

Sorry there are no passes over London.